MyTimes logo

TIMES

Webb Imagery

15/02/2014
Cowes Classic
500m Swim / 4.0km Run - Local Residents

(Click on competitor name to view personalised results)

Name
Race #
Category
Time
(h:mm:ss)
Avg Speed
km/hr
OAll
Place
Cat
Place
BATES Oliver#819Local Junior Team0:21:24 12.6 11
PLANT Luke#233Local Senior Male0:22:25 12 21
ROWE Mark#245Local Senior Male0:22:49 11.8 32
RYAN Declan#820Local Team0:23:06 11.7 41
ONLEY Thomas#839Local Team0:23:21 11.6 52
FLEISNER Rob#82Local 50+ Male0:23:46 11.4 61
KAYE-HELMOT Georgia#831Local Team0:24:11 11.2 73
HARRISON Hamish#275Local Senior Male0:24:21 11.1 83
TERLICH Christian#840Local Team0:24:36 11 94
SULLIVAN Matthew#202Local Senior Male0:24:39 11 104
TILLEY Justin#305Local Senior Male0:24:58 10.8 115
MATTHEWS Jade#298Local Senior Male0:25:07 10.7 126
HIATT Walter#91Local Junior Male0:25:07 10.7 131
SPOTTISWOOD James#310Local Senior Male0:25:35 10.6 147
CORBETT Jim#73Local 40-49 Male0:25:46 10.5 151
BOND Marcus#234Local Senior Male0:26:14 10.3 168
LANGFORD Imigen#806Local Junior Team0:26:25 10.2 172
HURLEY Tristan#250Local Senior Male0:26:27 10.2 189
EDWARDS Molly#38Local Junior Female0:26:32 10.2 191
HARRIS Kris#47Local 40-49 Male0:26:38 10.1 202
ADAMS James#254Local Senior Male0:26:39 10.1 2110
BELL Jessica#827Local Team0:27:01 10 225
BENDTSEN Katrina#218Local Senior Female0:27:05 10 231
DRENNAN Amanda#836Local Team0:27:14 9.9 246
HARRIS Michelle#230Local Senior Female0:27:22 9.9 252
DOCKERTY Joshua#264Local Senior Male0:27:27 9.8 2611
RIORDON Scott#274Local Senior Male0:27:35 9.8 2712
TURNER Peter#44Local 50+ Male0:27:39 9.8 282
TURNER Georgia#43Local Junior Female0:27:46 9.7 292
MAHON Debbi#260Local Senior Female0:27:50 9.7 303
MASTERMAN Gavin#296Local Senior Male0:28:07 9.6 3113
WRIGHT Marcus#281Local Senior Male0:28:16 9.6 3214
HENZEN Jarrod#273Local Senior Male0:28:39 9.4 3315
GOLDIE Tony#79Local 40-49 Male0:28:48 9.4 343
LUMSDEN Kai#53Local Junior Male0:28:51 9.4 352
BUXTON Corey#301Local Senior Male0:29:05 9.3 3616
VANDERZWET Michael#83Local 40-49 Male0:29:12 9.2 374
BELL Ash#277Local Senior Female0:29:14 9.2 384
OLSEN Andrea#50Local 40-49 Female0:29:28 9.2 391
TAYLOR Shane#265Local Senior Male0:29:47 9.1 4017
COX Bill#814Local Team0:29:47 9.1 417
DALLINGER Chris#283Local Senior Male0:29:50 9.1 4218
CUNNINGHAM Emma#262Local Senior Female0:29:55 9 435
VANDERZWET Angus#84Local Junior Male0:29:57 9 443
BEEHICKMAN Darcy#263Local Senior Male0:30:04 9 4519
TAYLOR Jack#59Local Junior Male0:30:05 9 464
HARRIS Simon#229Local Senior Male0:30:09 9 4720
BARNETT Chris#854Local Team0:30:38 8.8 488
MC KINTOSH Casey#829Local Team0:30:39 8.8 499
TYRRELL Sarah#849Local Team0:30:47 8.8 5010
PLANT Mark#842Local Team0:30:51 8.8 5111
STAFFORD Rachel#815Local Team0:31:02 8.7 5212
NEWMAN Nadine#802Local Team0:31:10 8.7 5313
PRENDERGAST Damian#311Local Senior Male0:31:19 8.6 5421
VANDERSWET Oscar#85Local Junior Male0:31:33 8.6 555
PIERA Joel#60Local Junior Male0:31:40 8.5 566
GRYDEN Thomas#302Local Senior Male0:31:41 8.5 5722
TURNER Olivia#45Local Junior Female0:31:45 8.5 583
CHAMBERS Jacquie#290Local Senior Female0:31:51 8.5 596
BROWN Sean#89Local 40-49 Male0:31:52 8.5 605
SUNDERLAND Greg#54Local 40-49 Male0:31:53 8.5 616
SMART Fiona#805Local Team0:32:01 8.4 6214
LIPSCOMB John#66Local 40-49 Male0:32:04 8.4 637
HIBBLE Jenny#19Local 50+ Female0:32:07 8.4 641
TURNER Bridget#843Local Team0:32:22 8.3 6515
MCDONALD Kellie#251Local Senior Female0:32:31 8.3 667
SCHUMACHER Jacqui#882Local Team0:32:56 8.2 6716
WESTAWAY Jeremy#291Local Senior Male0:32:58 8.2 6823
MATTHEWS Robert#42Local 50+ Male0:33:07 8.2 693
FLEISNER Paul#845Local Team0:33:12 8.1 7017
BRUSA Jo#823Local Team0:33:32 8.1 7118
KENT Ryan#833Local Team0:33:33 8 7219
BUCHANAN Kathryn#237Local Senior Female0:33:45 8 738
BEHRE Michaela#212Local Senior Female0:33:45 8 749
WHELLER Laurie#56Local 50+ Male0:33:49 8 754
ROOKS Bhavani#824Local Team0:33:57 8 7620
TAYLOR Kevin#299Local Senior Male0:34:00 7.9 7724
BEE Zoe#58Local Junior Female0:34:09 7.9 784
SCICLUNA Todd#282Local Senior Male0:34:26 7.8 7925
CAIN Greg#61Local 50+ Male0:35:04 7.7 805
VAN DER HEYDEN Natalie#228Local Senior Female0:35:10 7.7 8110
MARSCHALL Sarah#63Local 40-49 Female0:35:31 7.6 822
MASTERMAN-SMITH Jay#304Local Senior Male0:35:47 7.5 8326
VERNON Bianca#226Local Senior Female0:36:30 7.4 8411
HOLLINS Jenny#36Local 40-49 Female0:37:36 7.2 853
O'HEA Esther#834Local Team0:38:37 7 8621
HICKMAN Brendan#57Local 50+ Male0:38:37 7 876
BAUER Ronnie#11Local 50+ Male0:41:21 6.5 887
DALLINGER Brian#55Local 50+ Male0:41:33 6.5 898